Location: Prairie Dale
(45.6972°N, 104.5033°W)
Time: 02:01:31
(UTC+00:00)

CAS-4A - Visible Passes

Search period start: 02 July 2022 00:00
Search period end: 12 July 2022 00:00
Orbit: 523 x 536 km, 43.0° (Epoch: 01 July)

Date Brightness Start Highest point End Pass type
(mag) Time Alt. Az. Time Alt. Az. Time Alt. Az.
02 Jul ? 08:09:31 17° ESE 08:09:31 17° ESE 08:11:10 10° ESE visible
02 Jul ? 09:44:42 17° WSW 09:47:35 50° SSE 09:51:31 10° E visible
03 Jul ? 07:57:14 18° ESE 07:57:14 18° ESE 07:58:45 10° E visible
03 Jul ? 09:32:25 20° WSW 09:35:01 53° S 09:38:58 10° E visible
04 Jul ? 07:44:56 18° ESE 07:44:56 18° ESE 07:46:17 10° E visible
04 Jul ? 09:20:07 23° WSW 09:22:27 56° S 09:26:25 10° E visible
05 Jul ? 07:32:39 17° ESE 07:32:39 17° ESE 07:33:49 10° E visible
05 Jul ? 09:07:50 26° WSW 09:09:52 58° S 09:13:52 10° E visible
06 Jul ? 07:20:25 15° E 07:20:25 15° E 07:21:19 10° E visible
06 Jul ? 08:55:36 31° WSW 08:57:18 59° S 09:01:18 10° E visible
06 Jul ? 10:33:14 10° W 10:37:04 43° SSW 10:40:54 10° SE visible
07 Jul ? 07:08:16 13° E 07:08:16 13° E 07:08:47 10° E visible
07 Jul ? 08:43:27 38° WSW 08:44:44 60° S 08:48:43 10° E visible
07 Jul ? 10:20:42 10° W 10:24:27 39° SSW 10:28:14 10° SE visible
08 Jul ? 08:31:29 50° SW 08:32:09 59° S 08:36:08 10° ESE visible
08 Jul ? 10:08:10 10° W 10:11:51 34° SSW 10:15:32 10° SE visible
09 Jul ? 08:19:50 56° SSE 08:19:50 56° SSE 08:23:32 10° ESE visible
09 Jul ? 09:55:39 10° W 09:59:13 31° SSW 10:02:47 10° SE visible
10 Jul ? 08:08:52 28° ESE 08:08:52 28° ESE 08:10:56 10° ESE visible
10 Jul ? 09:44:11 16° WSW 09:46:35 27° SSW 09:50:00 10° SSE visible
11 Jul ? 04:31:43 10° SSW 04:34:53 25° SSE 04:34:53 25° SSE visible
11 Jul ? 09:34:27 23° SSW 09:34:27 23° SSW 09:37:10 10° SSE visible
